[[{"header":{"parameterUnit":"m.s-1","parameterCategory":1,"la1":30.2991,"la2":30.254,"lo1":-89.0895,"lo2":-89.0444,"dy":0.0017,"dx":0.0017,"nx":28,"ny":28,"refTime":"2024-07-11T03:00:00:Z","depth":0,"parameterNumber":2,"parameterNumberName":"U-component_of_WINDS"},"data":[0,0,0,0,0,0,0,0,0,0,0,0,0,0,0,0,0,0,0,0,0,0,0,0,0,0,0,0,0,0,0,0,0,0,0,0,0,0,0,0,0,0,0,0,0,0,0,0,0,0,0,0,0,0,0,0,0,0,2.1947,2.1949,0,2.2109,2.2111,2.2112,2.2146,2.2144,2.2143,2.2142,2.2308,2.2313,2.2319,0,0,0,0,0,0,0,0,0,0,0,0,0,2.1665,2.167,2.1947,2.1949,2.1951,2.2108,2.2111,2.2113,2.2146,2.2144,2.2143,2.2141,2.2306,2.2313,2.2319,0,0,0,0,0,0,0,0,0,0,0,0,0,2.1803,2.1672,2.1946,2.1986,2.1991,2.2108,2.2111,2.2113,2.2146,2.2144,2.2142,2.2141,2.2304,2.2312,2.232,2.2409,0,0,2.2346,2.2349,0,0,0,0,0,0,0,0,2.1795,2.1813,2.1978,2.1984,2.199,2.2105,2.2072,2.2212,2.2147,2.2087,2.2142,2.214,2.2242,2.2255,2.229,2.2417,2.2424,2.2346,2.2352,2.2355,2.2358,0,0,0,0,0,0,0,2.1786,2.1807,2.2011,2.1981,2.1988,2.1996,2.2013,2.2099,2.2173,2.2092,2.2095,2.2114,2.2245,2.2282,2.2294,2.2426,2.2346,2.2354,2.2359,2.2362,2.2632,2.2634,0,0,0,0,0,0,2.1769,2.1798,2.2006,2.2016,2.1886,2.2002,2.2022,2.207,2.2172,2.2186,2.2115,2.2115,2.2268,2.2284,2.23,2.2409,2.2355,2.2363,2.2368,2.263,2.2633,2.2635,0,0,0,0,0,0,2.1763,2.1787,2.1999,2.1908,2.1935,2.2009,2.2063,2.2074,2.2111,2.2189,2.2203,2.2139,2.2267,2.2288,2.2381,2.2415,2.2367,2.2374,2.2628,2.2631,2.2634,2.2628,0,0,0,0,0,0,2.1755,2.1785,2.1819,2.1908,2.194,2.2078,2.2065,2.2079,2.2125,2.2126,2.2216,2.2229,2.2268,2.2368,2.2389,2.2426,2.2381,2.2625,2.2629,2.2633,2.2626,2.2631,2.2635,0,0,0,0,0,2.1744,2.1812,2.1821,2.1846,2.1985,2.208,2.2098,2.2141,2.2128,2.2163,2.2213,2.2226,2.2408,2.2378,2.2402,2.2441,2.2623,2.2628,2.2633,2.2624,2.263,2.2635,0,0,0,0,0,0,2.1725,2.1824,2.1835,2.1934,2.1998,2.2085,2.2131,2.2147,2.2216,2.2214,2.2265,2.2285,2.2375,2.2418,2.2382,2.2531,2.2515,2.2525,2.25,2.2507,2.2511,2.2498,2.2388,0,0,0,0,0,2.1732,2.1801,2.1884,2.1962,2.1994,2.2057,2.21,2.2127,2.2196,2.2223,2.2281,2.2347,2.2419,2.2465,2.2536,2.2633,2.2652,2.2671,2.2676,2.268,2.2687,2.274,2.2749,2.2651,2.2651,2.2651,0,0,2.1747,2.181,2.185,2.196,2.2013,2.2082,2.2079,2.2154,2.2205,2.2235,2.2326,2.237,2.2447,2.2542,2.2586,2.258,2.2719,2.2686,2.2688,2.2694,2.2746,2.2755,2.2763,2.2654,2.2654,2.2653,0,0,2.1811,2.1866,2.1936,2.1989,2.207,2.2111,2.2128,2.2213,2.2243,2.2335,2.2358,2.2421,2.2544,2.2598,2.2641,2.2724,2.2737,2.2746,2.277,2.2821,2.2829,2.2836,2.2864,2.2873,2.2753,2.2753,2.2753,0,2.1819,2.1925,2.197,2.2043,2.209,2.212,2.2191,2.2241,2.234,2.2372,2.2363,2.2518,2.2572,2.2679,2.2699,2.2734,2.2754,2.2735,2.2824,2.2832,2.2839,2.2866,2.2877,2.2753,2.2753,2.2753,2.2753,0,2.1931,2.2004,2.2052,2.2146,2.2199,2.2271,2.2326,2.2374,2.2397,2.2439,2.2531,2.2598,2.2681,2.2709,2.2733,2.2819,2.2813,2.2814,2.2798,2.2848,2.2874,2.2885,2.2754,2.2754,2.2754,2.2754,0,0,2.1986,2.2105,2.2121,2.2164,2.2254,2.2311,2.2384,2.2466,2.2505,2.2573,2.2634,2.2738,2.2739,2.2788,2.2818,2.2863,2.2922,2.2859,2.2861,2.2867,2.302,2.3017,2.3029,2.2932,2.2935,2.2937,2.3013,0,2.2059,2.219,2.2232,2.2341,2.2408,2.2437,2.25,2.2562,2.2603,2.2666,2.2712,2.2784,2.278,2.281,2.2856,2.2905,2.2953,2.2901,2.2989,2.2992,2.2967,2.3043,2.3041,2.311,2.3024,2.3026,2.3027,0,2.2162,2.223,2.2345,2.2426,2.2456,2.2512,2.259,2.265,2.272,2.2747,2.2801,2.2828,2.2904,2.2885,2.299,2.2953,2.2992,2.3022,2.3026,2.3035,2.3011,2.3052,2.3133,2.3143,2.3044,2.3043,2.3041,0,2.2188,2.2309,2.2393,2.2429,2.2526,2.2564,2.2607,2.2676,2.2722,2.279,2.282,2.2897,2.2938,2.2997,2.3042,2.3024,2.3143,2.3128,2.3167,2.3166,2.319,2.3187,2.3276,2.3217,2.3217,2.3217,2.3217,0,2.2264,2.2333,2.2406,2.2458,2.2535,2.2584,2.2659,2.2703,2.2764,2.2824,2.2854,2.291,2.2968,2.3031,2.3068,2.3149,2.3168,2.3191,2.32,2.3188,2.3184,2.3213,2.3209,2.322,2.3219,2.3218,2.3218,0,2.2306,2.2358,2.2452,2.2536,2.2558,2.2612,2.2683,2.2734,2.2776,2.2852,2.2872,2.2939,2.3015,2.3066,2.3164,2.3189,2.3276,2.3285,2.3252,2.3256,2.3291,2.3286,2.34,2.3417,2.3347,2.3348,2.3349,0,2.2351,2.2404,2.2494,2.2536,2.2578,2.2646,2.2693,2.2742,2.279,2.2874,2.2915,2.2993,2.3057,2.3177,2.3234,2.3309,2.3318,2.3353,2.333,2.3315,2.3317,2.3313,2.3318,2.3356,2.3357,2.3357,2.3358,0,2.2423,2.2446,2.2513,2.2588,2.2643,2.2705,2.2767,2.28,2.286,2.2912,2.299,2.304,2.314,2.3216,2.3296,2.3339,2.3358,2.3365,2.3377,2.3365,2.3343,2.3353,2.326,2.3361,2.3361,2.3361,2.3361,2.336,2.2467,2.2515,2.2585,2.2658,2.271,2.2767,2.2819,2.2867,2.2933,2.3017,2.3042,2.3123,2.3192,2.3301,2.3345,2.3409,2.3406,2.3424,2.3429,2.3432,2.3431,2.3334,2.3424,2.3423,2.3423,2.3423,2.3423,0,2.254,2.2586,2.2653,2.2738,2.2795,2.2808,2.2877,2.2924,2.2994,2.3057,2.312,2.3209,2.3283,2.3345,2.3422,2.3461,2.3471,2.3479,2.3476,2.3485,2.343,2.3411,2.3469,2.3469,2.3469,2.3469,2.3469,2.3469,2.2584,2.2666,2.2697,2.2805,2.2851,2.293,2.2968,2.302,2.307,2.3168,2.3229,2.327,2.3332,2.3413,2.3482,2.3498,2.3524,2.353,2.3548,2.3495,2.349,2.3484,2.3466,2.3536,2.3536,2.3598,2.3599,2.3599]},{"header":{"parameterUnit":"m.s-1","parameterCategory":1,"la1":30.2991,"la2":30.254,"lo1":-89.0895,"lo2":-89.0444,"dy":0.0017,"dx":0.0017,"nx":28,"ny":28,"refTime":"2024-07-11T03:00:00:Z","depth":0,"parameterNumber":3,"parameterNumberName":"V-component_of_WINDS"},"data":[0,0,0,0,0,0,0,0,0,0,0,0,0,0,0,0,0,0,0,0,0,0,0,0,0,0,0,0,0,0,0,0,0,0,0,0,0,0,0,0,0,0,0,0,0,0,0,0,0,0,0,0,0,0,0,0,0,0,2.1883,2.1882,0,2.182,2.1819,2.1819,2.1739,2.1738,2.1737,2.1736,2.1672,2.1671,2.1671,0,0,0,0,0,0,0,0,0,0,0,0,0,2.1933,2.1933,2.1883,2.1882,2.1881,2.182,2.1819,2.1819,2.174,2.1738,2.1737,2.1735,2.1672,2.1671,2.1671,0,0,0,0,0,0,0,0,0,0,0,0,0,2.1895,2.1933,2.1883,2.1835,2.183,2.182,2.1819,2.1818,2.174,2.1738,2.1736,2.1734,2.1672,2.1671,2.167,2.1704,0,0,2.1668,2.1668,0,0,0,0,0,0,0,0,2.1897,2.1893,2.1842,2.1838,2.1832,2.1786,2.1814,2.178,2.174,2.1774,2.1736,2.1733,2.1711,2.1707,2.1699,2.1701,2.1698,2.1668,2.1668,2.1667,2.1667,0,0,0,0,0,0,0,2.19,2.1896,2.1858,2.1842,2.1836,2.1816,2.1808,2.1807,2.1754,2.1771,2.1765,2.1759,2.1708,2.17,2.1697,2.1697,2.1668,2.1667,2.1667,2.1667,2.1721,2.1723,0,0,0,0,0,0,2.191,2.1898,2.186,2.1856,2.1861,2.1816,2.1808,2.1803,2.1754,2.1745,2.176,2.1755,2.1703,2.1698,2.1695,2.1729,2.1667,2.1666,2.1666,2.1719,2.1721,2.1723,0,0,0,0,0,0,2.1911,2.1907,2.1862,2.1876,2.1868,2.1817,2.1812,2.1802,2.1795,2.1746,2.1736,2.1762,2.1701,2.1696,2.1702,2.1726,2.1666,2.1665,2.1717,2.172,2.1722,2.18,0,0,0,0,0,0,2.1913,2.1908,2.1921,2.1876,2.1868,2.1871,2.1814,2.1802,2.1793,2.1786,2.1745,2.1736,2.1699,2.1703,2.1701,2.1724,2.1665,2.1714,2.1718,2.1721,2.1795,2.1805,2.1814,0,0,0,0,0,2.1915,2.1946,2.1922,2.1918,2.1883,2.1873,2.1868,2.1824,2.1796,2.1808,2.1776,2.1738,2.1724,2.1705,2.1701,2.1724,2.1712,2.1717,2.1721,2.1791,2.1803,2.1813,0,0,0,0,0,0,2.1995,2.1939,2.1912,2.1929,2.1906,2.1859,2.1873,2.1839,2.1824,2.1817,2.1764,2.1755,2.1767,2.1746,2.1726,2.1753,2.1712,2.1716,2.1766,2.1778,2.1787,2.1792,2.1664,0,0,0,0,0,2.2014,2.2011,2.1962,2.1982,2.1972,2.1925,2.1919,2.1887,2.1861,2.1851,2.182,2.1796,2.1786,2.1781,2.1769,2.1791,2.1781,2.1805,2.1815,2.1823,2.1827,2.1835,2.1845,2.1737,2.1737,2.1737,0,0,2.2054,2.2023,2.2025,2.1997,2.1976,2.1973,2.1917,2.1917,2.1914,2.1851,2.1854,2.1831,2.18,2.1814,2.1819,2.1797,2.1854,2.1828,2.1835,2.1834,2.1841,2.1851,2.186,2.174,2.174,2.1739,0,0,2.2126,2.2103,2.2116,2.2095,2.2063,2.2031,2.2035,2.1993,2.1974,2.1977,2.1929,2.1925,2.1909,2.1889,2.1877,2.194,2.1903,2.1937,2.1986,2.1995,2.2004,2.2011,2.2032,2.2041,2.1941,2.1942,2.1942,0,2.218,2.2174,2.2127,2.2129,2.2118,2.206,2.2072,2.2055,2.2021,2.2014,2.199,2.1968,2.1944,2.1952,2.1967,2.196,2.1961,2.1942,2.2007,2.2013,2.2019,2.2039,2.2047,2.1946,2.1945,2.1945,2.1945,0,2.2241,2.2238,2.2253,2.2221,2.2211,2.2219,2.2172,2.2168,2.2137,2.2107,2.211,2.2078,2.2058,2.2058,2.2028,2.2061,2.2048,2.2017,2.1974,2.2035,2.2052,2.2059,2.1952,2.195,2.1949,2.1948,0,0,2.2362,2.2303,2.2309,2.2293,2.2253,2.2249,2.2254,2.2234,2.2231,2.2209,2.2211,2.2199,2.2168,2.2155,2.2121,2.213,2.218,2.2096,2.2094,2.2112,2.2213,2.2236,2.2246,2.2155,2.2157,2.2158,2.2215,0,2.2425,2.243,2.2387,2.2402,2.2398,2.2343,2.2346,2.2322,2.2294,2.2286,2.2255,2.2247,2.2208,2.2199,2.2205,2.2173,2.2199,2.2168,2.2156,2.2156,2.2164,2.2255,2.2281,2.2336,2.2221,2.2223,2.2223,0,2.25,2.2482,2.2497,2.2455,2.2452,2.2456,2.2434,2.2427,2.2398,2.2377,2.2361,2.2323,2.2323,2.2284,2.2283,2.2263,2.2255,2.2238,2.2239,2.2236,2.2193,2.2254,2.2353,2.2361,2.2234,2.2233,2.2232,0,2.2585,2.2564,2.2571,2.2559,2.2511,2.2514,2.2494,2.2463,2.2454,2.2434,2.2427,2.2408,2.2398,2.2384,2.2341,2.2316,2.2345,2.2302,2.2326,2.2328,2.2335,2.2335,2.2434,2.2331,2.2331,2.2331,2.2331,0,2.266,2.2671,2.2608,2.2612,2.2622,2.2573,2.2584,2.2559,2.2531,2.2528,2.2479,2.2478,2.2422,2.2414,2.238,2.2384,2.238,2.2362,2.2353,2.2366,2.2368,2.236,2.2355,2.2333,2.2333,2.2332,2.2332,0,2.2757,2.2715,2.2718,2.2671,2.266,2.267,2.2629,2.263,2.2599,2.2596,2.2593,2.2544,2.2532,2.2488,2.2465,2.2442,2.2456,2.2439,2.2466,2.246,2.2487,2.2485,2.2583,2.2593,2.2486,2.2487,2.2488,0,2.2807,2.2814,2.2768,2.2763,2.2745,2.2737,2.2727,2.2678,2.2669,2.2636,2.2641,2.2624,2.2608,2.2591,2.2553,2.2535,2.2516,2.2552,2.2513,2.2526,2.2516,2.2516,2.2515,2.2561,2.2562,2.2563,2.2564,0,2.2901,2.2879,2.2867,2.2847,2.2836,2.2818,2.2796,2.2795,2.274,2.2732,2.2719,2.2707,2.2683,2.2667,2.2642,2.262,2.2583,2.2577,2.2581,2.2594,2.2609,2.2601,2.2488,2.2575,2.2574,2.2573,2.2572,2.2572,2.2975,2.2978,2.2946,2.2933,2.2912,2.2893,2.2892,2.286,2.2848,2.2825,2.2796,2.2786,2.2755,2.2718,2.2699,2.269,2.2669,2.2677,2.2678,2.268,2.2686,2.2612,2.2685,2.2685,2.2685,2.2684,2.2684,0,2.3065,2.3041,2.303,2.3002,2.2992,2.2957,2.2932,2.2925,2.2917,2.2891,2.2877,2.286,2.2844,2.2805,2.2785,2.2785,2.2767,2.2781,2.278,2.2776,2.2706,2.2704,2.2796,2.2796,2.2796,2.2796,2.2796,2.2796,2.3111,2.3114,2.3089,2.3081,2.3057,2.3047,2.3035,2.3017,2.2996,2.298,2.2967,2.2941,2.2909,2.2886,2.2869,2.2858,2.2853,2.2872,2.2855,2.2791,2.2781,2.2771,2.2768,2.2872,2.2872,2.2925,2.2925,2.2926]}]]